Preview of NWS' New Version of Forecast
This preview is not operational and should not be used for support decisions.

Regional Weather Roundup (RWR)

Issued by Boston / Norton, MA (BOX)

                            
913 
ASUS41 KBOX 212310
RWRBOX

REGIONAL WEATHER ROUNDUP
NATIONAL WEATHER SERVICE BOSTON/NORTON MA
700 PM EDT THU JUN 21 2018

NOTE:  "FAIR" INDICATES FEW OR NO CLOUDS BELOW 12,000 FEET WITH NO 
SIGNIFICANT WEATHER AND/OR OBSTRUCTIONS TO VISIBILITY.

MAZALL-220000-
EASTERN MASSACHUSETTS
  
CITY           SKY/WX    TMP DP  RH WIND       PRES   REMARKS
BOSTON         FAIR      67  59  75 SE8       29.81R                  
BEVERLY        FAIR      68  57  68 SE8       29.80R                  
LAWRENCE       FAIR      77  57  50 VRB6      29.82R                  
BEDFORD        FAIR      72  55  55 SE13      29.79R                  
BLUE HILL        N/A     69  55  60 E9        29.81R                  
NORWOOD        PTSUNNY   74  56  53 E7        29.80R                  
MARSHFIELD     FAIR      68  59  73 E3        29.81S                  
PLYMOUTH       FAIR      71  58  63 NE5       29.81R                  
TAUNTON        CLOUDY    74  56  53 VRB3      29.80R                  
NEW BEDFORD    FAIR      72  66  81 CALM      29.79R                  
$$

MAZALL-220000-
CAPE COD AND THE ISLANDS
  
CITY           SKY/WX    TMP DP  RH WIND       PRES   REMARKS
FALMOUTH       PTSUNNY   68  63  83 S8        29.82R                  
HYANNIS        FAIR      70  64  81 VRB5      29.80R                  
CHATHAM        FAIR      66  60  81 S5        29.82R                  
PROVINCETOWN   FAIR      68  61  78 E6        29.81S                  
NANTUCKET      FAIR      64  62  93 E7        29.81R                  
MARTHAS VNYRD  FAIR      66  63  90 SE7       29.81R                  
$$
 
MAZALL-220000-
CENTRAL AND WESTERN MASSACHUSETTS
  
CITY           SKY/WX    TMP DP  RH WIND       PRES   REMARKS
WORCESTER      FAIR      73  59  61 E5        29.83R                  
FITCHBURG      CLOUDY    75  63  66 E6        29.81R                  
ORANGE         FAIR      78  41  26 N8        29.82R                  
SPRINGFIELD    MOSUNNY   78  53  42 NE12      29.78R                  
WESTFIELD      FAIR      79  56  45 NE9       29.78R                  
NORTH ADAMS    FAIR      75  52  44 VRB3      29.82R                  
PITTSFIELD     FAIR      73  54  51 N7        29.83R                  
$$
 
RIZALL-220000-
RHODE ISLAND
  
CITY           SKY/WX    TMP DP  RH WIND       PRES   REMARKS
PROVIDENCE     PTSUNNY   71  63  75 S8        29.80R                  
NEWPORT        FAIR      67  63  87 SE8       29.81R                  
BLOCK ISLAND   FOG       63  63 100 SE7       29.82R VSB 1/4          
SMITHFIELD     CLOUDY    73  57  57 E6        29.82R                  
WESTERLY       CLOUDY    68  66  93 SE8       29.82R                  
$$
 
CTZALL-220000-
CONNECTICUT
  
CITY           SKY/WX    TMP DP  RH WIND       PRES   REMARKS
BRADLEY INTL   FAIR      82  58  43 N7        29.78R                  
HARTFORD       FAIR      83  58  42 NE15      29.76R                  
BRIDGEPORT     FAIR      78  59  51 S5        29.77R                  
DANBURY        FAIR      79  55  43 N6        29.79R                  
GROTON         PTSUNNY   66  63  90 E8        29.80R                  
NEW HAVEN      PTSUNNY   77  62  59 SE3       29.78R                  
CHESTER        FAIR      75  63  64 S7        29.79S                  
MERIDEN        FAIR      79  61  53 S8        29.77R                  
WILLIMANTIC    FAIR      80  60  50 NE9       29.78R                  
OXFORD         FAIR      80  58  46 NE8       29.81R                  
$$

MEZ002-015-021-024-NHZ003-005-008-011-012-014-VTZ005-008-220000-
NORTHERN NEW ENGLAND
  
CITY           SKY/WX    TMP DP  RH WIND       PRES   REMARKS
PORTLAND ME    FAIR      65  56  72 S6        29.82R                  
BANGOR ME      FAIR      71  38  29 N9        29.83R                  
CONCORD NH     FAIR      77  44  30 N9        29.81R                  
MANCHESTER NH  FAIR      82  38  20 NW10      29.78R                  
NASHUA NH      CLOUDY    75  62  64 CALM      29.80R                  
PORTSMOUTH NH  MOSUNNY   68  55  62 E7        29.80                   
JAFFREY NH     FAIR      78  38  23 VRB3      29.84R                  
KEENE NH       FAIR      79  39  23 NW7       29.82R                  
BURLINGTON VT  FAIR      68  38  33 N8        29.91R                  
MT. WASHINGTON MOSUNNY   43  34  70 NW25G32     N/A                   
$$

NYZ052-076-220000-
EASTERN NEW YORK
  
CITY           SKY/WX    TMP DP  RH WIND       PRES   REMARKS
ALBANY         FAIR      76  49  38 N13       29.83R                  
NEW YORK CITY  PTSUNNY   83  59  44 SE9       29.76R                  
$$
 
ANZALL-220000-
MARINE OBSERVATIONS
  
STATION/POSITION TIME  TEMP    WIND        PRES    VSBY  WAVE
                       AIR SEA DIR/SP/G                  HT/PER
                 (UTC) (F)     (DEG/KT/KT) (MB)    (MI)  (FT/S)
BOSTON BUOY      2250   64 64  100/  8/  8 1008.9R         1
BUZZARDS BAY     2200   62     110/  6/  6 1009.4R
NANTUCKET SOUND  2250   66 67   80/  2/  2 1009.2R         1
MASS BAY-STELLWA 2204   60 61              1007.5S         1/ 8
ISLE OF SHOALS   2300   61     150/ 10/ 10 1009.1R
S OF BLOCK IS    2243      63                N/A           2/ 7
$$

......................KEY.........................
  SKY/WX - SKY CONDITION/PRESENT WEATHER
  TMP    - TEMPERATURE IN FAHRENHEIT
  DWPT   - DEWPOINT IN FAHRENHEIT
  RH     - RELATIVE HUMIDITY IN PERCENT
  WIND   - DIRECTION AND SPEED IN MPH
  PRES   - MEAN SEA LEVEL PRESSURE IN INCHES OF HG
  WCI    - WIND CHILL INDEX
  VSB    - VISIBILITY IN MILES
  HX     - HEAT INDEX
  TC     - TEMPERATURE IN CELSIUS
  VRB    - VARIABLE WIND DIRECTION
  N/A    - NOT AVAILABLE
  


000
ASUS41 KBOX 212310
RWRBOX

REGIONAL WEATHER ROUNDUP
NATIONAL WEATHER SERVICE BOSTON/NORTON MA
700 PM EDT THU JUN 21 2018

NOTE:  "FAIR" INDICATES FEW OR NO CLOUDS BELOW 12,000 FEET WITH NO 
SIGNIFICANT WEATHER AND/OR OBSTRUCTIONS TO VISIBILITY.

MAZALL-220000-
EASTERN MASSACHUSETTS
  
CITY           SKY/WX    TMP DP  RH WIND       PRES   REMARKS
BOSTON         FAIR      67  59  75 SE8       29.81R                  
BEVERLY        FAIR      68  57  68 SE8       29.80R                  
LAWRENCE       FAIR      77  57  50 VRB6      29.82R                  
BEDFORD        FAIR      72  55  55 SE13      29.79R                  
BLUE HILL        N/A     69  55  60 E9        29.81R                  
NORWOOD        PTSUNNY   74  56  53 E7        29.80R                  
MARSHFIELD     FAIR      68  59  73 E3        29.81S                  
PLYMOUTH       FAIR      71  58  63 NE5       29.81R                  
TAUNTON        CLOUDY    74  56  53 VRB3      29.80R                  
NEW BEDFORD    FAIR      72  66  81 CALM      29.79R                  
$$

MAZALL-220000-
CAPE COD AND THE ISLANDS
  
CITY           SKY/WX    TMP DP  RH WIND       PRES   REMARKS
FALMOUTH       PTSUNNY   68  63  83 S8        29.82R                  
HYANNIS        FAIR      70  64  81 VRB5      29.80R                  
CHATHAM        FAIR      66  60  81 S5        29.82R                  
PROVINCETOWN   FAIR      68  61  78 E6        29.81S                  
NANTUCKET      FAIR      64  62  93 E7        29.81R                  
MARTHAS VNYRD  FAIR      66  63  90 SE7       29.81R                  
$$
 
MAZALL-220000-
CENTRAL AND WESTERN MASSACHUSETTS
  
CITY           SKY/WX    TMP DP  RH WIND       PRES   REMARKS
WORCESTER      FAIR      73  59  61 E5        29.83R                  
FITCHBURG      CLOUDY    75  63  66 E6        29.81R                  
ORANGE         FAIR      78  41  26 N8        29.82R                  
SPRINGFIELD    MOSUNNY   78  53  42 NE12      29.78R                  
WESTFIELD      FAIR      79  56  45 NE9       29.78R                  
NORTH ADAMS    FAIR      75  52  44 VRB3      29.82R                  
PITTSFIELD     FAIR      73  54  51 N7        29.83R                  
$$
 
RIZALL-220000-
RHODE ISLAND
  
CITY           SKY/WX    TMP DP  RH WIND       PRES   REMARKS
PROVIDENCE     PTSUNNY   71  63  75 S8        29.80R                  
NEWPORT        FAIR      67  63  87 SE8       29.81R                  
BLOCK ISLAND   FOG       63  63 100 SE7       29.82R VSB 1/4          
SMITHFIELD     CLOUDY    73  57  57 E6        29.82R                  
WESTERLY       CLOUDY    68  66  93 SE8       29.82R                  
$$
 
CTZALL-220000-
CONNECTICUT
  
CITY           SKY/WX    TMP DP  RH WIND       PRES   REMARKS
BRADLEY INTL   FAIR      82  58  43 N7        29.78R                  
HARTFORD       FAIR      83  58  42 NE15      29.76R                  
BRIDGEPORT     FAIR      78  59  51 S5        29.77R                  
DANBURY        FAIR      79  55  43 N6        29.79R                  
GROTON         PTSUNNY   66  63  90 E8        29.80R                  
NEW HAVEN      PTSUNNY   77  62  59 SE3       29.78R                  
CHESTER        FAIR      75  63  64 S7        29.79S                  
MERIDEN        FAIR      79  61  53 S8        29.77R                  
WILLIMANTIC    FAIR      80  60  50 NE9       29.78R                  
OXFORD         FAIR      80  58  46 NE8       29.81R                  
$$

MEZ002-015-021-024-NHZ003-005-008-011-012-014-VTZ005-008-220000-
NORTHERN NEW ENGLAND
  
CITY           SKY/WX    TMP DP  RH WIND       PRES   REMARKS
PORTLAND ME    FAIR      65  56  72 S6        29.82R                  
BANGOR ME      FAIR      71  38  29 N9        29.83R                  
CONCORD NH     FAIR      77  44  30 N9        29.81R                  
MANCHESTER NH  FAIR      82  38  20 NW10      29.78R                  
NASHUA NH      CLOUDY    75  62  64 CALM      29.80R                  
PORTSMOUTH NH  MOSUNNY   68  55  62 E7        29.80                   
JAFFREY NH     FAIR      78  38  23 VRB3      29.84R                  
KEENE NH       FAIR      79  39  23 NW7       29.82R                  
BURLINGTON VT  FAIR      68  38  33 N8        29.91R                  
MT. WASHINGTON MOSUNNY   43  34  70 NW25G32     N/A                   
$$

NYZ052-076-220000-
EASTERN NEW YORK
  
CITY           SKY/WX    TMP DP  RH WIND       PRES   REMARKS
ALBANY         FAIR      76  49  38 N13       29.83R                  
NEW YORK CITY  PTSUNNY   83  59  44 SE9       29.76R                  
$$
 
ANZALL-220000-
MARINE OBSERVATIONS
  
STATION/POSITION TIME  TEMP    WIND        PRES    VSBY  WAVE
                       AIR SEA DIR/SP/G                  HT/PER
                 (UTC) (F)     (DEG/KT/KT) (MB)    (MI)  (FT/S)
BOSTON BUOY      2250   64 64  100/  8/  8 1008.9R         1
BUZZARDS BAY     2200   62     110/  6/  6 1009.4R
NANTUCKET SOUND  2250   66 67   80/  2/  2 1009.2R         1
MASS BAY-STELLWA 2204   60 61              1007.5S         1/ 8
ISLE OF SHOALS   2300   61     150/ 10/ 10 1009.1R
S OF BLOCK IS    2243      63                N/A           2/ 7
$$

......................KEY.........................
  SKY/WX - SKY CONDITION/PRESENT WEATHER
  TMP    - TEMPERATURE IN FAHRENHEIT
  DWPT   - DEWPOINT IN FAHRENHEIT
  RH     - RELATIVE HUMIDITY IN PERCENT
  WIND   - DIRECTION AND SPEED IN MPH
  PRES   - MEAN SEA LEVEL PRESSURE IN INCHES OF HG
  WCI    - WIND CHILL INDEX
  VSB    - VISIBILITY IN MILES
  HX     - HEAT INDEX
  TC     - TEMPERATURE IN CELSIUS
  VRB    - VARIABLE WIND DIRECTION
  N/A    - NOT AVAILABLE